SES-9

Last updated on Sat Mar 14 2026 00:02:55 GMT+0000 (Coordinated Universal Time)

1 41380U 16013A 26071.59819078 -.00000344 00000+0 00000+0 0 9990 2 41380 0.0283 280.9183 0001753 124.7546 88.1882 1.00271324 36472
UTC large
Height (km)
Speed (km/s)
/
Latitude / Longitude
Inclination (degrees)
Orbital Period (minutes)
Azimuth
Elevation
Range (km)
Doppler Factor

Next 0 passes for location: London (51.5072 / 0.1276)

Sorry there are no passes over London.